Weather in Borshchevka

Russia / Tambov Oblast     52°35′49″N   41°19′13″E
temp.,
°C
wind,
m/s
gust,
m/s
humid.,
%
clouds,
%
prec.,
mm/h
press.,
hPa
HPBL,
m
7 march, sun
sun700:00−12wnw48930 0.0 1017143
03:00−13w49920 0.0 1017148
06:00−13wsw479650 0.0 1017137
09:00−10sw6139034 0.0 1015367
12:00−4sw91483100 0.0 1012961
15:00−3sw101776100 0.0 10071109
18:00−3sw91874100 0.0 10031173
21:00−2wsw111993100 1.1 10001132
8 march, mon
mon800:00−2w121894100 0.4 10001128
03:00−5w6148299 0.6 1002467
06:00−7wsw5128663 0.0 1002276
09:00−5wsw5128757 0.0 1003508
12:00−2wsw6108879 0.1 10031044
15:00−2w7117985 0.3 10031250
18:00−6w4118645 0.0 1005282
21:00−9wnw479226 0.0 1008118
9 march, tue
tue900:00−11wnw349011 0.0 100940
03:00−13nw33935 0.0 101035
06:00−15nw339532 0.0 101236
09:00−13nw349543 0.0 1013154
12:00−10nw359172 0.0 1014308
15:00−9nw468879 0.0 1015558
18:00−12nnw379391 0.1 1016181
21:00−15nw489566 0.1 1019143
10 march, wed
wed1000:00−17nw46966 0.0 1020107
03:00−18nw369744 0.0 1021103
06:00−20nw369881 0.0 1023103
09:00−19nnw479476 0.0 1024260
12:00−17nnw468923 0.0 1026384
15:00−16nw468717 0.0 1026403
18:00−20nw34930 0.0 102749
21:00−21nnw33930 0.0 102927
11 march, thu
thu1100:00−22nw22920 0.0 102920
03:00−23nnw12930 0.0 103120
06:00−23wnw12910 0.0 103120
09:00−19wsw11840 0.0 103266
12:00−15sw23761 0.0 1032249
15:00−14ssw35841 0.0 1031262
18:00−17ssw34870 0.0 103041
21:00−17s34820 0.0 103066